Location: Caltech
(34.1382°N, 118.1253°W)
Time: 17:21:36
(UTC-07:00)

HO-68 - Visible Passes

Search period start: 01 August 2014 00:00
Search period end: 11 August 2014 00:00
Orbit: 1193 x 1205 km, 100.2° (Epoch: 01 August)

Date Brightness Start Highest point End Pass type
(mag) Time Alt. Az. Time Alt. Az. Time Alt. Az.
01 Aug ? 21:08:20 11° SSE 21:15:20 84° ENE 21:22:31 10° NNW visible
01 Aug ? 23:00:14 10° WSW 23:03:40 14° W 23:07:08 10° WNW visible
02 Aug ? 20:51:27 10° SSE 20:58:30 64° ENE 21:05:33 10° N visible
02 Aug ? 22:41:37 10° SW 22:46:34 20° W 22:51:34 10° NW visible
03 Aug ? 20:34:54 10° SE 20:41:42 48° ENE 20:48:29 10° N visible
03 Aug ? 22:23:38 10° SSW 22:29:31 27° W 22:35:26 10° NW visible
04 Aug ? 20:18:34 10° SE 20:24:57 36° ENE 20:31:19 10° N visible
04 Aug ? 22:06:29 12° SSW 22:12:30 37° W 22:19:02 10° NNW visible
05 Aug ? 21:49:23 13° S 21:55:32 50° W 22:02:27 10° NNW visible
06 Aug ? 21:32:17 14° S 21:38:36 67° WSW 21:45:44 10° NNW visible
07 Aug ? 21:15:12 13° SSE 21:21:42 88° WSW 21:28:54 10° NNW visible
07 Aug ? 23:07:44 10° WSW 23:10:09 12° W 23:12:34 10° WNW visible
08 Aug ? 20:58:06 12° SSE 21:04:50 71° ENE 21:11:58 10° N visible
08 Aug ? 22:48:35 10° SW 22:53:02 17° W 22:57:30 10° NW visible
09 Aug ? 20:41:07 10° SE 20:48:02 54° ENE 20:54:56 10° N visible
09 Aug ? 22:30:28 10° SSW 22:35:57 24° W 22:41:32 10° NW visible
10 Aug ? 20:24:42 10° SE 20:31:15 41° ENE 20:37:49 10° N visible
10 Aug ? 22:13:23 13° SSW 22:18:55 33° W 22:25:14 10° NW visible
